FW3698 Weather Reports


Display with metric or nautical units.
time (UTC)temp
F
wind
direction
speed
MPH
gust
MPH
rain 1hr
in
rain 24hr
in
rain mn
in
humidity
%
barometer
mb
20260503190124 65 270 0.0 0.0 0.00 0.00 0.00 76 1014.1
20260503185122 65 270 0.0 0.0 0.00 0.00 0.00 76 1014.1
20260503184122 64 270 0.0 0.0 0.00 0.00 0.00 77 1014.2
20260503183122 64 270 0.0 0.0 0.00 0.00 0.00 77 1014.2
20260503182123 63 270 0.0 0.0 0.00 0.00 0.00 81 1014.2
20260503181144 63 270 0.0 0.0 0.00 0.00 0.00 81 1014.2
20260503180123 63 270 0.0 0.0 0.00 0.00 0.00 81 1014.2
20260503175122 63 270 0.0 0.0 0.00 0.00 0.00 81 1014.2
20260503174124 62 270 0.0 0.0 0.00 0.00 0.00 82 1014.4
20260503173123 62 270 0.0 0.0 0.00 0.00 0.00 82 1014.4
20260503172124 61 270 0.0 0.0 0.00 0.00 0.00 82 1014.5
20260503171122 61 270 0.0 0.0 0.00 0.00 0.00 82 1014.5
20260503170122 61 158 0.0 0.0 0.00 0.00 0.00 82 1014.5
20260503160122 59 158 0.0 0.0 0.00 0.00 0.00 81 1014.9
20260503150143 56 158 0.0 0.0 0.00 0.00 0.00 83 1015.0
20260503140122 55 158 0.0 0.0 0.00 0.00 0.00 81 1014.8
20260503131145 54 158 0.0 0.0 0.00 0.00 0.00 76 1014.7
20260503130122 54 158 0.0 0.0 0.00 0.00 0.00 76 1014.7
20260503120122 55 158 0.0 0.0 0.00 0.00 0.00 76 1014.5
20260503110122 57 158 0.0 0.0 0.00 0.00 0.00 72 1014.6
20260503100124 57 158 0.0 0.0 0.00 0.00 0.00 75 1014.5
20260503090122 58 158 0.0 0.0 0.00 0.00 0.00 71 1014.2
20260503081124 58 158 0.0 0.0 0.00 0.00 0.00 77 1014.4
20260503080124 58 158 0.0 0.0 0.00 0.00 0.00 77 1014.2
20260503072122 60 158 0.0 0.0 0.00 0.00 0.00 74 1014.1
20260503071124 60 158 0.0 0.0 0.00 0.00 0.00 74 1014.1
20260503070122 60 158 0.0 0.0 0.00 0.00 0.00 74 1014.0
20260503060122 61 158 0.0 0.0 0.00 0.00 0.00 76 1013.8
20260503055124 61 158 0.0 0.0 0.00 0.00 0.00 76 1013.8
20260503054122 62 158 0.0 0.0 0.00 0.00 0.00 76 1013.8
20260503053123 62 158 0.0 0.0 0.00 0.00 0.00 76 1013.9
20260503052123 63 158 0.0 0.0 0.00 0.00 0.00 72 1013.9
20260503051123 63 158 1.0 2.0 0.00 0.00 0.00 72 1013.9
20260503050123 63 158 1.0 2.0 0.00 0.00 0.00 72 1013.7
20260503045143 63 158 0.0 2.0 0.00 0.00 0.00 72 1013.7
20260503044143 64 158 0.0 0.0 0.00 0.00 0.00 71 1013.6
20260503043123 64 158 0.0 0.0 0.00 0.00 0.00 71 1013.6
20260503042122 66 158 0.0 0.0 0.00 0.00 0.00 69 1013.5
20260503041144 66 158 0.0 0.0 0.00 0.00 0.00 69 1013.5
20260503040122 71 158 0.0 0.0 0.00 0.00 0.00 62 1013.2
20260503035122 71 158 0.0 0.0 0.00 0.00 0.00 62 1013.2
20260503034122 71 180 0.0 0.0 0.00 0.00 0.00 62 1013.0
20260503033124 71 180 0.0 0.0 0.00 0.00 0.00 62 1013.0
20260503032122 71 158 0.0 0.0 0.00 0.00 0.00 62 1012.9
20260503031123 71 158 1.0 2.0 0.00 0.00 0.00 62 1012.9
20260503030124 74 158 1.0 2.0 0.00 0.00 0.00 56 1012.8
20260503025122 74 121 1.0 2.0 0.00 0.00 0.00 56 1012.8
20260503024144 74 113 1.0 2.0 0.00 0.00 0.00 56 1012.7
20260503023122 74 113 0.0 2.0 0.00 0.00 0.00 56 1012.8
20260503022124 75 113 0.0 0.0 0.00 0.00 0.00 54 1012.8
20260503021124 75 113 0.0 0.0 0.00 0.00 0.00 54 1012.8
20260503020122 75 270 0.0 0.0 0.00 0.00 0.00 54 1013.1
20260503015122 75 270 2.0 3.0 0.00 0.00 0.00 54 1013.1
20260503014122 74 270 2.0 3.0 0.00 0.00 0.00 54 1013.2
20260503013122 74 270 2.0 3.0 0.00 0.00 0.00 54 1013.4
20260503012122 75 270 2.0 3.0 0.00 0.00 0.00 53 1013.4
20260503011123 75 290 3.0 5.0 0.00 0.00 0.00 53 1013.4
20260503010143 75 292 3.0 5.0 0.00 0.00 0.00 53 1013.5
20260503005145 75 292 4.0 7.0 0.00 0.00 0.00 53 1013.5
20260503004122 75 292 4.0 7.0 0.00 0.00 0.00 54 1013.9
20260503003123 75 276 3.0 7.0 0.00 0.00 0.00 54 1013.9
20260503002143 75 270 3.0 4.0 0.00 0.00 0.00 54 1014.0
20260503001123 75 270 3.0 4.0 0.00 0.00 0.00 54 1014.0
20260503000123 74 270 3.0 4.0 0.00 0.00 0.00 55 1014.2
20260502235122 74 5 2.0 4.0 0.00 0.00 0.00 55 1014.2
20260502234122 74 23 2.0 3.0 0.00 0.00 0.00 55 1014.4
20260502233144 74 343 3.0 6.0 0.00 0.00 0.00 55 1014.4
20260502232122 74 337 4.0 6.0 0.00 0.00 0.00 55 1014.7
20260502231123 74 337 2.0 6.0 0.00 0.00 0.00 55 1014.7
20260502230143 72 337 2.0 3.0 0.00 0.00 0.00 61 1015.0
20260502225143 72 301 2.0 3.0 0.00 0.00 0.00 61 1015.0
20260502224122 72 292 2.0 3.0 0.00 0.00 0.00 61 1015.4
20260502223122 72 36 2.0 3.0 0.00 0.00 0.00 61 1015.6
20260502222122 72 45 2.0 3.0 0.00 0.00 0.00 61 1015.6
20260502221123 72 45 2.0 3.0 0.00 0.00 0.00 61 1015.6
20260502220122 67 45 2.0 3.0 0.00 0.00 0.00 71 1016.0
20260502215145 67 314 1.0 3.0 0.00 0.00 0.00 71 1016.0
20260502214122 67 292 1.0 2.0 0.00 0.00 0.00 71 1016.2
20260502213123 67 292 1.0 2.0 0.00 0.00 0.00 71 1016.2
20260502212122 67 292 1.0 2.0 0.00 0.00 0.00 71 1016.2
20260502211124 67 292 3.0 5.0 0.00 0.00 0.00 71 1016.2
20260502210123 65 292 3.0 5.0 0.00 0.00 0.00 77 1016.6
20260502205122 65 331 4.0 7.0 0.00 0.00 0.00 77 1016.6
20260502204122 65 337 4.0 7.0 0.00 0.00 0.00 77 1016.8
20260502203122 65 291 3.0 7.0 0.00 0.00 0.00 77 1016.8
20260502202122 65 270 2.0 3.0 0.00 0.00 0.00 77 1016.8
20260502201143 65 270 1.0 3.0 0.00 0.00 0.00 77 1016.8
20260502200124 62 270 1.0 2.0 0.00 0.00 0.00 84 1017.1
20260502195143 62 270 0.0 2.0 0.00 0.00 0.00 84 1017.1
20260502194145 62 203 0.0 0.0 0.00 0.00 0.00 84 1017.2
20260502193123 62 203 0.0 0.0 0.00 0.00 0.00 84 1017.2
20260502192145 62 248 0.0 0.0 0.00 0.00 0.00 84 1017.2
20260502191123 62 247 1.0 2.0 0.00 0.00 0.00 84 1017.2